Location: Artiguedieu
(43.5000°N, 0.5454°E)
Time: 00:23:27
(UTC+00:00)

Transit 2A Rocket - Pass Details

Date: 30 July 2021
Orbit: 586 x 916 km, 66.7° (Epoch: 19 September)

Event Time Altitude Azimuth Distance (km) Brightness Sun altitude
Rises 15:13:27 0° 233° (SW) 2,842 8.7 43.1°
Reaches altitude 10° 15:15:46 10° 242° (WSW) 1,971 8.2 42.7°
Maximum altitude 15:19:52 36° 310° (NW) 1,014 6.5 42.0°
Drops below altitude 10° 15:24:18 10° 18° (NNE) 2,134 7.2 41.2°
Sets 15:26:55 0° 27° (NNE) 3,112 7.9 40.8°
